Buger, Spain

2:20 AM CEST on July 28, 2017 (GMT +0200)
Buger

Weather History for 08306 - March, 2013

Change the Weather History Date:

Sunday, March 10, 2013

  Actual Average Record
Temperature  
Mean Temperature 58 °F -  
Max Temperature 63 °F 63 °F - ()
Min Temperature 54 °F 43 °F - ()
Degree Days  
Heating Degree Days 6    
Growing Degree Days 8 (Base 50)    
Moisture  
Dew Point 50 °F    
Average Humidity 74    
Maximum Humidity 94    
Minimum Humidity 38    
Precipitation  
Precipitation 0.00 in 0.05 in - ()
Sea Level Pressure  
Sea Level Pressure 29.68 in    
Wind  
Wind Speed 13 mph ()    
Max Wind Speed 29 mph    
Max Gust Speed 34 mph    
Visibility 6.5 miles    
Events      
T = Trace of Precipitation, MM = Missing Value Source: Averaged Metar Reports

Daily Weather History Graph

Daily Weather History Graph

Search for Another Location

Airport or City:

Trip Planner

Search our weather history database for the weather conditions in past years. The results will help you decide how hot, cold, wet, or windy it might be!

Date:

Astronomy

Mar. 10, 2013 Rise Set
Actual Time 7:08 AM CET 6:50 PM CET
Civil Twilight 6:41 AM CET 7:17 PM CET
Nautical Twilight 6:10 AM CET 7:48 PM CET
Astronomical Twilight 5:39 AM CET 8:20 PM CET
Moon 5:59 AM CET (3/10) 5:42 PM CET (3/10)
Length of Visible Light 12h 36m
Length of Day
11h 42m
Waning Crescent, 2% of the Moon is Illuminated
Mar 10
Waning Crescent
Mar 11
New
Mar 19
First Quarter
Mar 27
Full
Apr 3
Last Quarter

Hourly Weather History & Observations

Time (CET) Temp. Dew Point Humidity Pressure Visibility Wind Dir Wind Speed Gust Speed Precip Events Conditions
12:00 AM 57.2 °F 55.4 °F 94% 29.74 in 6.2 mi SSW 6.9 mph - N/A   Partly Cloudy
12:30 AM 59.0 °F 55.4 °F 88% 29.71 in 6.2 mi SW 11.5 mph - N/A   Scattered Clouds
1:00 AM 57 °F 54 °F 85% 29.72 in 6 mi SW 10.4 mph - -   Partly Cloudy
1:00 AM 59.0 °F 55.4 °F 88% 29.71 in 6.2 mi SW 6.9 mph - N/A   Scattered Clouds
1:30 AM 59.0 °F 55.4 °F 88% 29.71 in 6.2 mi SW 9.2 mph - N/A   Mostly Cloudy
2:00 AM 59.0 °F 55.4 °F 88% 29.71 in 6.2 mi WSW 9.2 mph - N/A   Mostly Cloudy
2:30 AM 57.2 °F 55.4 °F 94% 29.68 in 6.2 mi SW 4.6 mph - N/A   Scattered Clouds
3:00 AM 57.2 °F 55.4 °F 94% 29.68 in 6.2 mi SSW 4.6 mph - N/A   Partly Cloudy
3:30 AM 57.2 °F 55.4 °F 94% 29.68 in 6.2 mi SSW 4.6 mph - N/A   Partly Cloudy
4:00 AM 57.2 °F 55.4 °F 94% 29.65 in 4.3 mi SSW 5.8 mph - N/A   Partly Cloudy
4:30 AM 57.2 °F 53.6 °F 88% 29.65 in 4.3 mi South 4.6 mph - N/A   Partly Cloudy
5:00 AM 55.4 °F 51.8 °F 88% 29.65 in 5.6 mi SW 6.9 mph - N/A   Partly Cloudy
5:30 AM 57.2 °F 51.8 °F 82% 29.65 in 5.6 mi SSW 8.1 mph - N/A   Partly Cloudy
6:00 AM 57.2 °F 50.0 °F 77% 29.65 in 6.2 mi WSW 13.8 mph - N/A   Partly Cloudy
6:30 AM 57.2 °F 48.2 °F 72% 29.65 in 6.2 mi West 13.8 mph - N/A   Partly Cloudy
7:00 AM 54 °F 45 °F 64% 29.67 in 12 mi WSW 13.8 mph - -   Partly Cloudy
7:00 AM 55.4 °F 48.2 °F 77% 29.65 in 6.2 mi WSW 15.0 mph - N/A   Partly Cloudy
7:30 AM 55.4 °F 48.2 °F 77% 29.65 in 6.2 mi WSW 17.3 mph - N/A   Partly Cloudy
8:00 AM 57.2 °F 50.0 °F 77% 29.65 in 6.2 mi WSW 15.0 mph - N/A   Partly Cloudy
8:30 AM 59.0 °F 50.0 °F 72% 29.65 in 6.2 mi WSW 17.3 mph - N/A   Partly Cloudy
9:00 AM 59.0 °F 50.0 °F 72% 29.68 in 6.2 mi WSW 20.7 mph - N/A   Partly Cloudy
9:30 AM 60.8 °F 50.0 °F 68% 29.68 in 6.2 mi West 20.7 mph - N/A   Partly Cloudy
10:00 AM 62.6 °F 50.0 °F 63% 29.68 in 6.2 mi WSW 19.6 mph - N/A   Partly Cloudy
10:30 AM 60.8 °F 48.2 °F 63% 29.71 in 6.2 mi West 20.7 mph - N/A   Partly Cloudy
11:00 AM 62.6 °F 46.4 °F 55% 29.71 in 6.2 mi West 23.0 mph 34.5 mph N/A   Partly Cloudy
11:30 AM 62.6 °F 48.2 °F 59% 29.71 in 6.2 mi West 28.8 mph - N/A   Partly Cloudy
12:00 PM 62.6 °F 46.4 °F 55% 29.71 in 6.2 mi West 27.6 mph - N/A   Partly Cloudy
12:30 PM 62.6 °F 46.4 °F 55% 29.71 in 6.2 mi WSW 28.8 mph - N/A   Partly Cloudy
1:00 PM 62 °F 43 °F 38% 29.72 in 16 mi WSW 27.6 mph - -   Scattered Clouds
1:00 PM 62.6 °F 46.4 °F 55% 29.71 in 6.2 mi West 26.5 mph - N/A   Partly Cloudy
1:30 PM 62.6 °F 46.4 °F 55% 29.71 in 6.2 mi WSW 27.6 mph - N/A   Partly Cloudy
2:00 PM 62.6 °F 44.6 °F 52% 29.68 in 6.2 mi West 27.6 mph - N/A   Partly Cloudy
2:30 PM 62.6 °F 44.6 °F 52% 29.68 in 6.2 mi West 24.2 mph - N/A   Partly Cloudy
3:00 PM 64.4 °F 44.6 °F 49% 29.68 in 6.2 mi West 25.3 mph - N/A   Partly Cloudy
3:30 PM 62.6 °F 44.6 °F 52% 29.68 in 6.2 mi West 24.2 mph - N/A   Partly Cloudy
4:00 PM 62.6 °F 44.6 °F 52% 29.68 in 6.2 mi WSW 21.9 mph - N/A   Partly Cloudy
4:30 PM 60.8 °F 50.0 °F 68% 29.68 in 6.2 mi WSW 18.4 mph 29.9 mph N/A   Partly Cloudy
5:00 PM 60.8 °F 48.2 °F 63% 29.65 in 6.2 mi WSW 17.3 mph - N/A   Partly Cloudy
5:30 PM 60.8 °F 50.0 °F 68% 29.68 in 6.2 mi SW 16.1 mph - N/A   Partly Cloudy
6:00 PM 59.0 °F 51.8 °F 77% 29.68 in 6.2 mi WSW 17.3 mph - N/A   Partly Cloudy
6:30 PM 59.0 °F 51.8 °F 77% 29.68 in 6.2 mi WSW 18.4 mph - N/A   Partly Cloudy
7:00 PM 57 °F 49 °F 65% 29.69 in 12 mi WSW 17.3 mph - -   Scattered Clouds
7:00 PM 57.2 °F 51.8 °F 82% 29.68 in 6.2 mi WSW 15.0 mph - N/A   Partly Cloudy
7:30 PM 57.2 °F 51.8 °F 82% 29.68 in 6.2 mi WSW 16.1 mph - N/A   Partly Cloudy
8:00 PM 57.2 °F 51.8 °F 82% 29.68 in 6.2 mi WSW 16.1 mph - N/A   Partly Cloudy
8:30 PM 57.2 °F 51.8 °F 82% 29.68 in 6.2 mi WSW 16.1 mph - N/A   Partly Cloudy
9:00 PM 55.4 °F 51.8 °F 88% 29.68 in 6.2 mi WSW 15.0 mph - N/A   Partly Cloudy
9:30 PM 55.4 °F 51.8 °F 88% 29.68 in 6.2 mi WSW 11.5 mph - N/A   Partly Cloudy
10:00 PM 55.4 °F 51.8 °F 88% 29.68 in 6.2 mi SW 10.4 mph - N/A   Partly Cloudy
10:30 PM 57.2 °F 51.8 °F 82% 29.68 in 6.2 mi WSW 11.5 mph - N/A   Partly Cloudy
11:00 PM 57.2 °F 51.8 °F 82% 29.68 in 6.2 mi WSW 15.0 mph - N/A   Partly Cloudy
11:30 PM 57.2 °F 51.8 °F 82% 29.68 in 6.2 mi WSW 13.8 mph - N/A   Partly Cloudy